User: anonymous   Login
Location: Unspecified
(0.0000°N, 0.0000°E)
Time: 07:29:26
(UTC+00:00)
Language:

Terriers - Orbit

View from above orbital plane
View from above orbital plane
View from above satellite
View from above satellite

Ground track
Ground track

The orbit data is extracted from the following two-line orbital elements,

1 25735U 99026A   17148.94424407 +.00002449 +00000-0 +53316-4 0  9994
2 25735 097.1807 314.9272 0006534 086.7088 273.4909 15.45243452003269
Epoch (UTC): 28 May 2017 22:39:42
Eccentricity: 0.0006534
inclination: 97.1807°
perigee height: 426 km
apogee height: 435 km
right ascension of ascending node: 314.9272°
argument of perigee: 86.7088°
revolutions per day: 15.45243452
mean anomaly at epoch: 273.4909°
orbit number at epoch: 326

The dashed part of the orbit path shows where the satellite is in the earth's shadow,  

DLR